Weather in Marib

Yemen     15°25′05″N   45°20′05″E
temp.,
°C
wind,
m/s
gust,
m/s
humid.,
%
clouds,
%
prec.,
mm/h
press.,
hPa
HPBL,
m
16 may, sun
sun1600:00+29wsw233389 0.0 100756
03:00+27w1138100 0.0 100612
06:00+27w113669 0.0 100811
09:00+31n232367 0.0 10081268
12:00+35nne321622 0.0 10063765
15:00+36ene541337 0.0 10034115
18:00+35ene3414100 0.0 10043737
21:00+30nw7929100 0.0 1008397
17 may, mon
mon1700:00+30sw122977 0.0 100749
03:00+28wsw223255 0.0 100617
06:00+27ne11365 0.0 100913
09:00+32n22265 0.0 10091180
12:00+35nne21157 0.0 10073830
15:00+36ne531388 0.0 10044066
18:00+35ene431395 0.0 10053275
21:00+33ese231685 0.0 100755
18 may, tue
tue1800:00+30nw462929 0.0 100794
03:00+29nnw353170 0.0 1007153
06:00+28wnw353278 0.0 100883
09:00+32nnw3319100 0.0 10091042
12:00+35ene321294 0.0 10073870
15:00+37ene5311100 0.0 10044414
18:00+35ene651298 0.0 10053593
21:00+32e491373 0.0 1008164
19 may, wed
wed1900:00+31nne441323 0.0 100734
03:00+28nw441939 0.0 100836
06:00+27nw333111 0.0 100931
09:00+32nne341660 0.0 1009991
12:00+36e5610100 0.0 10074346
15:00+37ene66912 0.0 10044474
18:00+35e45916 0.0 1005983
21:00+31nne2210100 0.0 100712
20 may, thu
thu2000:00+29w221110 0.0 100811
03:00+27w111334 0.0 100711
06:00+27nw221378 0.0 100911
09:00+32nne348100 0.0 10101329
12:00+35nne576100 0.0 10083337
15:00+36nne4959 0.0 10054074
18:00+35nne6965 0.0 1006408
21:00+30nne239100 0.0 100813